Location: Prague
(50.0830°N, 14.4670°E)
Time: 11:19:41
(UTC+01:00)

Oscar 11 - Pass Details

Date: 01 December 2021
Orbit: 611 x 625 km, 97.6° (Epoch: 23 January)

Event Time Altitude Azimuth Distance (km) Brightness Sun altitude
Rises 05:03:51 0° 19° (NNE) 2,922 10.7 -24.0°
Reaches altitude 10° 05:06:10 10° 26° (NNE) 2,008 9.9 -23.7°
Maximum altitude 05:10:18 41° 97° (E) 903 8.3 -23.0°
Drops below altitude 10° 05:14:25 10° 169° (S) 1,986 9.9 -22.3°
Sets 05:16:41 0° 176° (S) 2,884 10.6 -22.0°
